Tracking 19477 objects as of 16-Jan-2019
HD Live streaming from Space Station
objects crossing your sky now

GALAXY 26 (TELSTAR 6)

Track GALAXY 26 (TELSTAR 6) now!
GALAXY 26 (TELSTAR 6) is classified as:


NORAD ID: 25626
Int'l Code: 1999-005A
Perigee: 36,137.5 km
Apogee: 36,172.0 km
Inclination: 5.9 °
Period: 1,454.6 minutes
Semi major axis: 42525 km
RCS: 36.2015 m2 (large)
Launch date: February 15, 1999
Source: United States (US)
Launch site: TYURATAM MISSILE AND SPACE COMPLEX (TTMTR)

24 C-band, 28 Ku-band; U.S., southern Canada, Mexico, Caribbean.
aabbcc
Your satellite tracking list
Your tracking list is empty




NASA's NSSDC Master Catalog

Two Line Element Set (TLE):
1 25626U 99005A   19016.49936406 -.00000198  00000-0  00000+0 0  9990
2 25626   5.9372  69.0135 0004064 230.9778 115.1895  0.98997706 72759
Source of the keplerian elements: AFSPC